Weather History for Wooster, OH

Change the Weather History Date:

Sunday, January 19, 2014

  Actual Average Record
Temperature  
Mean Temperature 21 °F -  
Max Temperature 30 °F 28 °F 50 °F (2006)
Min Temperature 12 °F 14 °F -5 °F (2009)
Degree Days  
Heating Degree Days 44    
Moisture  
Dew Point 16 °F    
Average Humidity 80    
Maximum Humidity 92    
Minimum Humidity 61    
Precipitation  
Precipitation 0.00 in - - ()
Sea Level Pressure  
Sea Level Pressure 29.77 in    
Wind  
Wind Speed 8 mph (SW)    
Max Wind Speed 21 mph    
Max Gust Speed 31 mph    
Visibility 8 miles    
Events Snow    
Averages and records for this station are not official NWS values.
T = Trace of Precipitation, MM = Missing Value Source: NWS Daily Summary

Daily Weather History Graph

Daily Weather History Graph

Search for Another Location

Airport:

Trip Planner

Search our weather history database for the weather conditions in past years. The results will help you decide how hot, cold, wet, or windy it might be!

Date:

Astronomy

Jan. 19, 2014 Rise Set
Actual Time 7:47 AM EST 5:29 PM EST
Civil Twilight 7:17 AM EST 5:59 PM EST
Nautical Twilight 6:44 AM EST 6:32 PM EST
Astronomical Twilight 6:11 AM EST 7:05 PM EST
Moon 9:07 PM EST (1/19) 9:15 AM EST (1/19)
Length of Visible Light 10h 41m
Length of Day
9h 41m
Waning Gibbous, 89% of the Moon is Illuminated
Jan 19
Waning Gibbous
Jan 24
Last Quarter
Jan 30
New
Feb 6
First Quarter
Feb 14
Full

Hourly Weather History & Observations

Time (EST) Temp. Windchill Dew Point Humidity Pressure Visibility Wind Dir Wind Speed Gust Speed Precip Events Conditions
12:14 AM 17.1 °F 10.0 °F 14.0 °F 88% 29.78 in 3.0 mi SSE 4.6 mph - 0.00 in Snow Light Snow
12:56 AM 17.1 °F 10.0 °F 14.0 °F 88% 29.82 in 5.0 mi SSE 4.6 mph - 0.00 in Snow Light Snow
1:56 AM 18.0 °F 12.7 °F 15.1 °F 88% 29.81 in 4.0 mi SSE 3.5 mph - 0.00 in Snow Light Snow
2:20 AM 18.0 °F 11.1 °F 14.0 °F 84% 29.76 in 4.0 mi South 4.6 mph - 0.00 in Snow Light Snow
2:27 AM 18.0 °F 9.8 °F 14.0 °F 84% 29.75 in 3.0 mi South 5.8 mph - 0.00 in Snow Light Snow
2:33 AM 18.0 °F 11.1 °F 15.1 °F 88% 29.75 in 2.5 mi South 4.6 mph - 0.00 in Snow Light Snow
2:56 AM 18.0 °F 9.8 °F 15.1 °F 88% 29.80 in 2.5 mi South 5.8 mph - 0.00 in Snow Light Snow
3:03 AM 18.0 °F 9.8 °F 15.1 °F 88% 29.74 in 3.0 mi South 5.8 mph - 0.00 in Snow Light Snow
3:23 AM 17.1 °F 11.7 °F 15.1 °F 92% 29.75 in 6.0 mi South 3.5 mph - 0.00 in   Overcast
3:56 AM 17.1 °F - 14.0 °F 88% 29.80 in 7.0 mi Calm Calm - 0.00 in   Overcast
4:36 AM 17.1 °F 10.0 °F 14.0 °F 88% 29.74 in 9.0 mi SSW 4.6 mph - 0.00 in   Overcast
4:56 AM 17.1 °F 11.7 °F 14.0 °F 88% 29.79 in 9.0 mi SW 3.5 mph - 0.00 in   Overcast
5:03 AM 17.1 °F 11.7 °F 14.0 °F 88% 29.73 in 9.0 mi SW 3.5 mph - N/A   Overcast
5:56 AM 12.9 °F 3.8 °F 10.9 °F 92% 29.80 in 8.0 mi WSW 5.8 mph - N/A   Mostly Cloudy
6:03 AM 15.1 °F 6.4 °F 12.0 °F 88% 29.74 in 8.0 mi SW 5.8 mph - N/A   Mostly Cloudy
6:56 AM 16.0 °F 7.4 °F 12.9 °F 88% 29.80 in 8.0 mi West 5.8 mph - N/A   Overcast
7:44 AM 19.0 °F 9.0 °F 16.0 °F 88% 29.76 in 8.0 mi West 8.1 mph - 0.00 in   Overcast
7:56 AM 19.0 °F 9.0 °F 16.0 °F 88% 29.82 in 7.0 mi West 8.1 mph - 0.00 in   Overcast
8:49 AM 19.0 °F 10.0 °F 17.1 °F 92% 29.76 in 6.0 mi WSW 6.9 mph - N/A   Scattered Clouds
8:56 AM 19.9 °F 10.1 °F 17.1 °F 89% 29.83 in 6.0 mi WSW 8.1 mph - N/A   Partly Cloudy
9:10 AM 21.0 °F 8.6 °F 17.1 °F 85% 29.77 in 7.0 mi WSW 12.7 mph - N/A   Mostly Cloudy
9:32 AM 21.9 °F 9.2 °F 17.1 °F 82% 29.78 in 7.0 mi WSW 13.8 mph - N/A   Scattered Clouds
9:49 AM 21.9 °F 9.2 °F 17.1 °F 82% 29.78 in 7.0 mi WSW 13.8 mph 23.0 mph N/A   Mostly Cloudy
9:56 AM 21.9 °F 7.3 °F 16.0 °F 78% 29.83 in 8.0 mi WSW 18.4 mph 24.2 mph N/A   Mostly Cloudy
10:25 AM 21.9 °F 6.9 °F 16.0 °F 78% 29.79 in 10.0 mi WSW 19.6 mph 24.2 mph N/A   Overcast
10:56 AM 21.9 °F 6.9 °F 15.1 °F 75% 29.84 in 10.0 mi WSW 19.6 mph 27.6 mph N/A   Scattered Clouds
11:56 AM 23.0 °F 10.1 °F 16.0 °F 74% 29.81 in 10.0 mi WSW 15.0 mph - N/A   Clear
12:56 PM 24.1 °F 11.0 °F 17.1 °F 75% 29.79 in 10.0 mi WSW 16.1 mph 26.5 mph N/A   Overcast
1:56 PM 27.0 °F 14.3 °F 18.0 °F 69% 29.75 in 10.0 mi SW 17.3 mph 27.6 mph N/A   Partly Cloudy
2:56 PM 28.9 °F 16.5 °F 18.0 °F 64% 29.74 in 10.0 mi WSW 18.4 mph 27.6 mph N/A   Mostly Cloudy
3:56 PM 30.0 °F 17.9 °F 18.0 °F 61% 29.74 in 10.0 mi SW 18.4 mph 31.1 mph N/A   Scattered Clouds
4:56 PM 28.9 °F 16.9 °F 18.0 °F 64% 29.75 in 10.0 mi WSW 17.3 mph 26.5 mph N/A   Clear
5:56 PM 28.0 °F 14.6 °F 18.0 °F 66% 29.74 in 10.0 mi SW 20.7 mph 26.5 mph N/A   Clear
6:56 PM 28.0 °F 16.1 °F 19.0 °F 69% 29.74 in 10.0 mi SW 16.1 mph 25.3 mph N/A   Clear
7:56 PM 28.9 °F 17.7 °F 19.0 °F 67% 29.72 in 10.0 mi SW 15.0 mph 21.9 mph N/A   Clear
8:56 PM 30.0 °F 19.1 °F 19.9 °F 66% 29.70 in 10.0 mi SW 15.0 mph 28.8 mph N/A   Clear
9:56 PM 30.0 °F 17.2 °F 19.9 °F 66% 29.72 in 10.0 mi WSW 20.7 mph 29.9 mph N/A   Clear
10:56 PM 30.0 °F 17.5 °F 21.0 °F 69% 29.70 in 10.0 mi WSW 19.6 mph 28.8 mph N/A   Clear
11:56 PM 30.9 °F 19.8 °F 21.0 °F 67% 29.68 in 10.0 mi SW 16.1 mph 25.3 mph N/A   Clear